Grand Junction, CO

2:10 AM MDT on October 17, 2017 (GMT -0600)
Walker

Weather History for KGJT - March, 2013

Change the Weather History Date:

Saturday, March 9, 2013

  Actual Average Record
Temperature  
Mean Temperature 36 °F 42 °F  
Max Temperature 40 °F 55 °F 76 °F (1989)
Min Temperature 31 °F 30 °F 14 °F (1964)
Degree Days  
Heating Degree Days 29 23  
Month to date heating degree days 214 215  
Since 1 July heating degree days 4977 4594  
Cooling Degree Days 0 0  
Month to date cooling degree days 0 0  
Year to date cooling degree days 0 0  
Moisture  
Dew Point 33 °F    
Average Humidity 76    
Maximum Humidity 100    
Minimum Humidity 52    
Precipitation  
Precipitation 0.11 in 0.03 in 0.57 in (1948)
Month to date precipitation 0.24 0.23  
Year to date precipitation 1.24 1.35  
Snow  
Snow T in 0.00 in 5.60 in (1948)
Month to date snowfall T 0.7  
Since 1 July snowfall 20.0 16.2  
Snow Depth 0.00 in    
Sea Level Pressure  
Sea Level Pressure 29.83 in    
Wind  
Wind Speed 10 mph (NNW)    
Max Wind Speed 23 mph    
Max Gust Speed 28 mph    
Visibility 6 miles    
Events Rain , Snow    
T = Trace of Precipitation, MM = Missing Value Source: NWS Daily Summary

Daily Weather History Graph

Daily Weather History Graph

Search for Another Location

Airport or City:

Trip Planner

Search our weather history database for the weather conditions in past years. The results will help you decide how hot, cold, wet, or windy it might be!

Date:

Astronomy

Mar. 09, 2013 Rise Set
Actual Time 6:34 AM MST 6:15 PM MST
Civil Twilight 6:07 AM MST 6:42 PM MST
Nautical Twilight 5:36 AM MST 7:13 PM MST
Astronomical Twilight 5:05 AM MST 7:44 PM MST
Moon 4:59 AM MST (3/9) 4:21 PM MST (3/9)
Length of Visible Light 12h 34m
Length of Day
11h 41m
Waning Crescent, 5% of the Moon is Illuminated
Mar 9
Waning Crescent
Mar 11
New
Mar 19
First Quarter
Mar 27
Full
Apr 2
Last Quarter

Hourly Weather History & Observations

Time (MST) Temp. Windchill Dew Point Humidity Pressure Visibility Wind Dir Wind Speed Gust Speed Precip Events Conditions
12:53 AM 36.0 °F 29.6 °F 33.1 °F 89% 29.61 in 10.0 mi ESE 8.1 mph - N/A   Clear
1:53 AM 39.9 °F 35.1 °F 34.0 °F 79% 29.61 in 10.0 mi SSE 6.9 mph - 0.00 in   Overcast
2:53 AM 37.9 °F 33.5 °F 34.0 °F 86% 29.60 in 10.0 mi East 5.8 mph - N/A   Overcast
3:53 AM 36.0 °F 32.1 °F 33.1 °F 89% 29.60 in 10.0 mi East 4.6 mph - N/A   Overcast
4:53 AM 35.1 °F 29.3 °F 34.0 °F 96% 29.63 in 10.0 mi ENE 6.9 mph - N/A   Mostly Cloudy
5:36 AM 35.6 °F 25.5 °F 35.6 °F 100% 29.68 in 10.0 mi NW 17.3 mph - 0.00 in Rain Light Rain
5:53 AM 34.0 °F 23.4 °F 34.0 °F 100% 29.67 in 9.0 mi NNW 17.3 mph - 0.00 in Rain Light Rain
6:11 AM 33.8 °F 22.5 °F 33.8 °F 100% 29.69 in 10.0 mi North 19.6 mph - 0.00 in   Overcast
6:23 AM 32.0 °F 20.5 °F 32.0 °F 100% 29.70 in 1.5 mi North 18.4 mph - 0.00 in Snow Light Snow
6:53 AM 33.1 °F 21.2 °F 33.1 °F 100% 29.70 in 1.5 mi North 20.7 mph - 0.01 in Snow Light Snow
7:13 AM 32.0 °F 21.6 °F 32.0 °F 100% 29.73 in 1.0 mi North 15.0 mph - 0.00 in Snow Light Snow
7:53 AM 32.0 °F 23.6 °F 32.0 °F 100% 29.75 in 1.0 mi North 10.4 mph - 0.01 in Snow Light Snow
8:53 AM 32.0 °F 23.6 °F 32.0 °F 100% 29.77 in 1.0 mi North 10.4 mph - 0.02 in Snow Light Snow
9:27 AM 33.8 °F 25.3 °F 33.8 °F 100% 29.79 in 1.0 mi North 11.5 mph - 0.00 in Snow Light Snow
9:53 AM 33.1 °F 24.9 °F 33.1 °F 100% 29.80 in 1.0 mi North 10.4 mph - 0.00 in Snow Light Snow
10:00 AM 33.8 °F 25.3 °F 33.8 °F 100% 29.80 in 1.0 mi North 11.5 mph - 0.00 in Snow Light Snow
10:09 AM 33.8 °F 24.8 °F 33.8 °F 100% 29.80 in 0.5 mi North 12.7 mph - 0.00 in Snow Light Snow
10:22 AM 33.8 °F 25.3 °F 33.8 °F 100% 29.81 in 1.0 mi NNW 11.5 mph - 0.00 in Snow Light Snow
10:49 AM 33.8 °F 25.3 °F 33.8 °F 100% 29.82 in 1.0 mi North 11.5 mph - 0.00 in Snow Light Snow
10:53 AM 34.0 °F 25.5 °F 34.0 °F 100% 29.82 in 1.5 mi North 11.5 mph - 0.00 in Snow Light Snow
11:25 AM 33.8 °F 27.0 °F 33.8 °F 100% 29.83 in 1.5 mi NNW 8.1 mph - 0.01 in Snow Light Snow
11:36 AM 33.8 °F 25.3 °F 33.8 °F 100% 29.84 in 1.2 mi NNW 11.5 mph - 0.02 in Snow Light Snow
11:53 AM 33.1 °F 24.4 °F 33.1 °F 100% 29.85 in 1.2 mi NW 11.5 mph - 0.04 in Snow Light Snow
12:28 PM 35.6 °F 27.1 °F 33.8 °F 93% 29.85 in 1.5 mi NNW 12.7 mph - 0.01 in Snow Light Snow
12:46 PM 35.6 °F 26.2 °F 33.8 °F 93% 29.84 in 10.0 mi NNW 15.0 mph - 0.01 in Rain Light Rain
12:48 PM 35.6 °F 26.6 °F 35.6 °F 100% 29.84 in 10.0 mi NNW 13.8 mph - 0.01 in Rain Light Rain
12:53 PM 35.1 °F 25.9 °F 35.1 °F 100% 29.84 in 9.0 mi NNW 13.8 mph - 0.01 in Rain Light Rain
1:23 PM 35.6 °F 26.2 °F 35.6 °F 100% 29.84 in 7.0 mi NNW 15.0 mph - 0.00 in Snow Light Snow
1:53 PM 35.1 °F 25.5 °F 34.0 °F 96% 29.84 in 6.0 mi North 15.0 mph - 0.01 in Snow Light Snow
2:10 PM 33.8 °F 24.3 °F 33.8 °F 100% 29.86 in 2.0 mi North 13.8 mph - 0.00 in Snow Light Snow
2:41 PM 33.8 °F 24.8 °F 33.8 °F 100% 29.86 in 4.0 mi North 12.7 mph - 0.01 in Snow Light Snow
2:53 PM 34.0 °F 25.5 °F 34.0 °F 100% 29.87 in 7.0 mi North 11.5 mph - 0.01 in Snow Light Snow
3:23 PM 37.4 °F 29.3 °F 35.6 °F 93% 29.87 in 10.0 mi NW 12.7 mph - 0.00 in Rain Light Rain
3:30 PM 37.4 °F 28.2 °F 37.4 °F 100% 29.88 in 10.0 mi NW 16.1 mph - 0.00 in Rain Light Rain
3:53 PM 37.0 °F 28.5 °F 36.0 °F 96% 29.88 in 10.0 mi NNW 13.8 mph - 0.00 in   Overcast
4:01 PM 37.4 °F 28.5 °F 35.6 °F 93% 29.89 in 10.0 mi NW 15.0 mph - N/A   Overcast
4:53 PM 37.4 °F 29.8 °F 35.6 °F 93% 29.91 in 10.0 mi NW 11.5 mph - N/A   Mostly Cloudy
5:53 PM 39.0 °F 31.8 °F 34.0 °F 82% 29.94 in 10.0 mi NW 11.5 mph - N/A   Scattered Clouds
6:53 PM 36.0 °F 29.0 °F 30.0 °F 79% 29.99 in 10.0 mi NNW 9.2 mph - N/A   Clear
7:53 PM 34.0 °F 28.8 °F 26.1 °F 73% 30.04 in 10.0 mi North 5.8 mph - N/A   Clear
8:53 PM 36.0 °F 33.3 °F 25.0 °F 64% 30.07 in 10.0 mi Variable 3.5 mph - N/A   Mostly Cloudy
9:53 PM 36.0 °F 28.0 °F 19.0 °F 50% 30.10 in 10.0 mi North 11.5 mph 16.1 mph N/A   Clear
10:53 PM 34.0 °F 27.2 °F 21.0 °F 59% 30.12 in 10.0 mi NNW 8.1 mph - N/A   Clear
11:53 PM 32.0 °F - 21.9 °F 66% 30.15 in 10.0 mi Calm Calm - N/A   Partly Cloudy